Regional Weather Roundup
Issued by NWS

Home | Current Version | Previous Version | Text Only | Print | Product List | Glossary Off
Versions: 1 2 3 4 5 6 7 8 9 10 11 12 13 14 15 16 17 18 19 20 21 22 23 24 25 26 27 28 29 30 31 32 33 34 35 36 37 38 39 40 41 42 43 44 45 46 47 48 49 50

000
ASUS44 KMEG 190200
RWRTN
TENNESSEE HOURLY STATE WEATHER ROUNDUP
NATIONAL WEATHER SERVICE MEMPHIS TN
900 PM CDT FRI APR 18 2014

TNZ002-004-019-021-049-052-054-088>092-190300-
WEST TENNESSEE

CITY           SKY/WX    TMP DP  RH WIND       PRES   REMARKS
MEMPHIS INTL   MOCLDY    66  51  58 E6        30.17R
NWS MEMPHIS      N/A     65 N/A N/A MISG        N/A
JACKSON        CLOUDY    63  50  62 CALM      30.18R
DYERSBURG      PTCLDY    63  45  51 CALM      30.19S
UNION CITY     CLEAR     61  48  63 CALM      30.17S
LEXINGTON      CLOUDY    64  46  52 NE3       30.18R
$$

TNZ008-025-027-028-033-062-065-066-190300-
NORTH MIDDLE TENNESSEE

CITY           SKY/WX    TMP DP  RH WIND       PRES   REMARKS
NASHVILLE      CLOUDY    61  46  57 CALM      30.19R
CLARKSVILLE    CLOUDY    61  47  59 NE3       30.19R
COOKEVILLE     CLEAR     54  46  76 CALM      30.18S
CROSSVILLE     CLOUDY    55  38  52 CALM      30.21R
$$

TNZ061-075-076-078-094-096-097-190300-
SOUTH MIDDLE TENNESSEE

CITY           SKY/WX    TMP DP  RH WIND       PRES   REMARKS
TULLAHOMA      CLEAR     55  46  71 CALM      30.19S
WINCHESTER     CLEAR     54  46  76 CALM      30.18S
MCMINNVILLE    CLEAR     55  50  82 CALM      30.19R
COLUMBIA       CLEAR     57  52  82 CALM      30.18R
$$

TNZ017-018-042-046-047-190300-
NORTHEAST TENNESSEE

CITY           SKY/WX    TMP DP  RH WIND       PRES   REMARKS
TRI CITIES     CLOUDY    53  38  56 N3        30.22S
ELIZABETHTON   CLEAR     50  41  71 CALM      30.22S
$$

TNZ012-013-036-069-073-074-190300-
CENTRAL EAST TENNESSEE

CITY           SKY/WX    TMP DP  RH WIND       PRES   REMARKS
KNOXVILLE      CLOUDY    56  41  57 NE8       30.17S
OAK RIDGE      CLOUDY    57  42  57 CALM      30.20S
$$

TNZ083-085-099-190300-
SOUTHEAST TENNESSEE

CITY           SKY/WX    TMP DP  RH WIND       PRES   REMARKS
CHATTANOOGA    CLOUDY    58  44  60 N3        30.16F
$$

SKY/WX REPORTED AS FAIR MEANS FEW OR NO CLOUDS BELOW
12 THOUSAND FEET.




USA.gov is the U.S. government's official web portal to all federal, state and local government web resources and services.